McCook, NE

9:57 AM CST on February 21, 2018 (GMT -0600)
McCook Municipal

Weather History for KMCK - July, 2014

Change the Weather History Date:

Thursday, July 3, 2014

  Actual Average Record
Temperature  
Mean Temperature 70 °F 75 °F  
Max Temperature 83 °F 90 °F 109 °F (1969)
Min Temperature 56 °F 61 °F 49 °F (1992)
Cooling Degree Days 4    
Growing Degree Days 20 (Base 50)    
Moisture  
Dew Point 58 °F    
Average Humidity 65    
Maximum Humidity 87    
Minimum Humidity 48    
Precipitation  
Precipitation 0.00 in 0.10 in 1.30 in (1981)
Month to date precipitation T 0.30  
Year to date precipitation 13.01 11.62  
Sea Level Pressure  
Sea Level Pressure 30.11 in    
Wind  
Wind Speed 9 mph (SSE)    
Max Wind Speed 21 mph    
Max Gust Speed 28 mph    
Visibility 10 miles    
Events      
T = Trace of Precipitation, MM = Missing Value Source: NWS Daily Summary

Daily Weather History Graph

Daily Weather History Graph

Search for Another Location

Airport or City:

Trip Planner

Search our weather history database for the weather conditions in past years. The results will help you decide how hot, cold, wet, or windy it might be!

Date:

Astronomy

Jul. 03, 2014 Rise Set
Actual Time 6:17 AM CDT 9:15 PM CDT
Civil Twilight 5:44 AM CDT 9:48 PM CDT
Nautical Twilight 5:03 AM CDT 10:29 PM CDT
Astronomical Twilight 4:15 AM CDT 11:17 PM CDT
Moon 12:19 PM CDT (7/3) 12:08 AM CDT (7/3)
Length of Visible Light 16h 03m
Length of Day
14h 57m
Waxing Crescent, 33% of the Moon is Illuminated
Jul 3
Waxing Crescent
Jul 5
First Quarter
Jul 12
Full
Jul 18
Last Quarter
Jul 26
New

Hourly Weather History & Observations

Time (CDT) Temp. Heat Index Dew Point Humidity Pressure Visibility Wind Dir Wind Speed Gust Speed Precip Events Conditions
12:53 AM 62.1 °F - 52.0 °F 70% 30.17 in 10.0 mi SE 9.2 mph - N/A   Clear
1:53 AM 60.1 °F - 52.0 °F 75% 30.17 in 10.0 mi SSE 6.9 mph - N/A   Clear
2:53 AM 59.0 °F - 51.1 °F 75% 30.16 in 10.0 mi SSE 5.8 mph - N/A   Clear
3:53 AM 57.9 °F - 51.1 °F 78% 30.15 in 10.0 mi SSE 3.5 mph - N/A   Clear
4:53 AM 57.0 °F - 52.0 °F 83% 30.13 in 10.0 mi Calm Calm - N/A   Clear
5:53 AM 57.0 °F - 52.0 °F 83% 30.14 in 10.0 mi SSE 4.6 mph - N/A   Clear
6:53 AM 57.0 °F - 53.1 °F 87% 30.15 in 10.0 mi ESE 3.5 mph - N/A   Scattered Clouds
7:53 AM 59.0 °F - 54.0 °F 83% 30.15 in 10.0 mi East 3.5 mph - N/A   Clear
8:53 AM 66.2 °F - 57.2 °F 73% 30.19 in 10.0 mi South 9.2 mph - N/A   Clear
9:53 AM 73.0 °F - 59.0 °F 61% 30.13 in 10.0 mi South 13.8 mph - N/A   Clear
10:53 AM 77.0 °F - 61.0 °F 58% 30.12 in 10.0 mi SSE 17.3 mph 21.9 mph N/A   Clear
11:53 AM 78.1 °F - 62.1 °F 58% 30.11 in 10.0 mi SSE 11.5 mph - N/A   Mostly Cloudy
12:53 PM 79.0 °F - 61.0 °F 54% 30.10 in 10.0 mi SSE 16.1 mph 21.9 mph N/A   Scattered Clouds
1:53 PM 82.4 °F 82.9 °F 60.8 °F 48% 30.14 in 10.0 mi SSE 18.4 mph 25.3 mph N/A   Scattered Clouds
2:53 PM 82.0 °F 82.7 °F 61.0 °F 49% 30.07 in 10.0 mi SSE 19.6 mph - N/A   Mostly Cloudy
3:53 PM 81.0 °F 81.6 °F 60.1 °F 49% 30.07 in 10.0 mi SSE 20.7 mph 27.6 mph N/A   Mostly Cloudy
4:53 PM 80.1 °F 80.9 °F 60.1 °F 50% 30.07 in 10.0 mi South 15.0 mph 23.0 mph N/A   Overcast
5:53 PM 81.0 °F 81.7 °F 61.0 °F 50% 30.06 in 10.0 mi SSE 17.3 mph 24.2 mph N/A   Overcast
6:53 PM 79.0 °F - 61.0 °F 54% 30.05 in 10.0 mi SSE 16.1 mph - N/A   Overcast
7:53 PM 79.0 °F - 62.1 °F 56% 30.04 in 10.0 mi SSE 13.8 mph 23.0 mph N/A   Overcast
8:53 PM 75.9 °F - 62.1 °F 62% 30.05 in 10.0 mi SSE 10.4 mph - N/A   Mostly Cloudy
9:53 PM 73.0 °F - 62.1 °F 68% 30.06 in 10.0 mi ESE 5.8 mph - N/A   Clear
10:53 PM 72.0 °F - 61.0 °F 68% 30.08 in 10.0 mi SE 11.5 mph - N/A   Partly Cloudy
11:53 PM 71.1 °F - 60.1 °F 68% 30.09 in 10.0 mi SSE 8.1 mph - N/A   Clear